Погода в Изобильном

Россия / Республика Крым     45°34′13″N   34°56′30″E
темп.,
°C
ветер,
м/с
пор.,
м/с
влажн.,
%
обл.,
%
осадки,
мм/ч
давл.,
гПа
погр.,
м
17 сентября, пт
пт1700:00+17с35530 0.0 1017181
03:00+16ссз23540 0.0 1017181
06:00+15зсз33590 0.0 101749
09:00+19зсз22460 0.0 1017338
12:00+22св42363 0.0 10161308
15:00+22всв43383 0.0 10151006
18:00+20в4546100 0.0 1015306
21:00+19вюв455393 0.0 1014159
18 сентября, сб
сб1800:00+16юз345798 0.0 101480
03:00+16зюз2254100 0.0 101349
06:00+17ююв1152100 0.0 101355
09:00+20ююв344693 0.0 1012344
12:00+24ююв5636100 0.0 1011819
15:00+21ююз7843100 0.0 1011276
18:00+18юв4663100 0.2 1011238
21:00+18ю345911 0.3 1011108
19 сентября, вс
вс1900:00+17ююз347095 0.1 1010104
03:00+18ююз237795 0.3 101087
06:00+18юз237597 0.1 101063
09:00+21зюз456143 0.1 1011458
12:00+25юз144937 0.0 10101363
15:00+22юв456795 0.2 1010189
18:00+22зсз356176 0.5 1009247
21:00+20зсз357094 0.5 1010169
20 сентября, пн
пн2000:00+17з48711 0.0 1011157
03:00+16з47745 0.0 1011135
06:00+16з348053 0.0 101180
09:00+20ю2356100 0.0 1011242
12:00+23ююз5648100 0.1 10101502
15:00+16сз5893100 5.9 1011368
18:00+17зсз468236 4.4 1013677
21:00+14з58780 4.5 1015201
21 сентября, вт
вт2100:00+13зсз59795 0.0 1016231
03:00+11зсз487910 0.0 1017182
06:00+10зсз3481100 0.0 1018103
09:00+14з3468100 0.0 1019308
12:00+17зсз2355100 0.0 1019610
15:00+16св3361100 0.0 1018245
18:00+16с3371100 0.0 1018322
21:00+15с3382100 0.1 1018300